Content
SEND FEEDBACK

United States of America Flag

PUT IN BAY, OHIO


Home > North America > United States > Ohio
Elevation: 561 feet     Latitude: 41 39N     Longitude: 082 48W

WEATHER
 
SELECT A DAY
Number of Records: 134,709;   Date Range: 12/10/00 - 3/22/16
 
SHARE

PRINT THIS DATA

[ ← Previous Day ]
WEATHER ALMANAC - FEBRUARY 20, 2014
[ Next Day → ]
[ °C ]   °F
Weather ElementAverageHighLow
Temperature33 °F41 °F (11:00 pm)25.9 °F (5:00 am)
Dewpoint31 °F37.9 °F (11:00 pm)24.4 °F (5:00 am)
Humidity91.6 %96 % (3:00 pm)82 % (7:00 am)
Barometer29.83 in30.10 in (2:00 am)29.46 in (11:00 pm)
Wind Speed6.6 mph10.4 mph (12:00 pm)
Wind Gust18.4 mph (7:00 pm)
Weather ElementAverage
Wind DirectionSE (131.1 °)

Weather ElementTotal
Precipitation0.86 in
Heating Degree Days31.6 (Base 65)
Averaged from 27 records on February 20, 2014
WEATHER CONDITIONS BREAKOUT
WIND DIRECTION BREAKOUT
WEATHER BY HOUR - FEBRUARY 20, 2014
[ °C ]   °F
Local TimeTemperatureDewpointHumidityBarometerVisibilityWind DirectionWind SpeedGust SpeedPrecipitationEventsConditions
1:00 AM29.0 °F27.0 °F90 %30.08 inSSW (200°)4.6 mph
1:00 AM29.1 °F27.1 °F92 %30.08 inSSW (200°)4.6 mph
2:00 AM30.7 °F28.2 °F90 %30.10 inSW (220°)8.1 mph
3:00 AM31.1 °F27.0 °F85 %30.09 inSW (220°)3.5 mph
4:00 AM27.5 °F25.7 °F93 %30.06 inSouth (170°)4.6 mph
5:00 AM25.9 °F24.4 °F94 %30.04 inESE (110°)2.3 mph
6:00 AM27.7 °F26.2 °F94 %30.01 inESE (120°)2.3 mph
7:00 AM31.0 °F28.0 °F82 %29.99 inSE (130°)5.8 mph
7:00 AM30.7 °F27.7 °F88 %29.99 inSE (130°)5.8 mph
8:00 AM30.0 °F27.7 °F91 %29.99 inSE (130°)6.9 mph
9:00 AM31.6 °F29.1 °F90 %29.95 inESE (110°)5.8 mph
10:00 AM34.5 °F30.0 °F84 %29.92 inESE (110°)6.9 mph
11:00 AM34.3 °F30.7 °F87 %29.93 inESE (120°)4.6 mph0.03 in
12:00 PM33.8 °F32.0 °F93 %29.84 inENE (70°)10.4 mph17.3 mph0.25 in
1:00 PM33.0 °F32.0 °F95 %29.82 inEast (100°)4.6 mph
1:00 PM33.4 °F31.8 °F94 %29.82 inEast (100°)4.6 mph0.25 in
2:00 PM33.3 °F31.8 °F94 %29.77 inEast (100°)8.1 mph0.11 in
3:00 PM34.0 °F33.1 °F96 %29.73 inESE (120°)6.9 mph
4:00 PM35.1 °F33.4 °F94 %29.72 inESE (120°)9.2 mph0.01 in
5:00 PM34.9 °F33.6 °F95 %29.69 inESE (110°)8.1 mph0.05 in
6:00 PM35.2 °F34.2 °F96 %29.64 inEast (100°)9.2 mph0.05 in
7:00 PM36.0 °F35.0 °F92 %29.59 inESE (110°)8.1 mph
7:00 PM35.6 °F34.5 °F96 %29.59 inESE (110°)8.1 mph18.4 mph0.09 in
8:00 PM36.7 °F35.6 °F96 %29.56 inESE (120°)6.9 mph0.02 in
9:00 PM37.6 °F35.8 °F93 %29.53 inSE (130°)10.4 mph
10:00 PM39.2 °F36.9 °F91 %29.49 inSE (130°)9.2 mph
11:00 PM41.0 °F37.9 °F89 %29.46 inSSE (150°)9.2 mph
Hourly data recorded from CXHA, located miles away from Put In Bay, Ohio




STORIES FROM OUR PARTNERS